Terminal Aerodrome Forecast
Issued by NWS Charleston, SC

Home | Current Version | Previous Version | Text Only | Print | Product List | Glossary On
Versions: 1 2 3 4 5 6 7 8 9 10 11 12 13 14 15 16
145
FTUS42 KCHS 241128
TAFSAV
TAF
KSAV 241128Z 2412/2512 02008KT P6SM SCT250
     FM241500 04010KT P6SM SCT040
     FM250000 03003KT P6SM BKN250=

USA.gov is the U.S. government's official web portal to all federal, state and local government web resources and services.